Regional Weather Roundup
Issued by NWS

Home | Current Version | Previous Version | Graphics & Text | Print | Product List | Glossary On
Versions: 1 2 3 4 5 6 7 8 9 10 11 12 13 14 15 16 17 18 19 20 21 22 23 24 25 26 27 28 29 30 31 32 33 34 35 36 37 38 39 40 41 42 43 44 45 46 47 48 49 50
000
ASUS43 KDTX 240601
RWRMI
MICHIGAN HOURLY REGIONAL WEATHER ROUNDUP
NATIONAL WEATHER SERVICE DETROIT/PONTIAC MI
200 AM EDT SUN MAY 24 2015

NOTE: "FAIR" INDICATES FEW OR NO CLOUDS BELOW 12,000 FEET WITH NO
SIGNIFICANT WEATHER AND/OR OBSTRUCTION TO VISIBILITY.

MIZ047>049-052>055-059>063-066>070-074>076-081>083-240700-
SOUTHEAST LOWER MICHIGAN

CITY           SKY/WX    TMP DP  RH WIND       PRES   REMARKS
ADRIAN         CLEAR     54  46  74 NE3       30.27S
6HR MIN TEMP:  54; 6HR MAX TEMP:  76;

ALMA           CLOUDY    51  47  85 CALM      30.25S
ANN ARBOR      CLEAR     47  43  86 CALM      30.27F
BAD AXE        CLEAR     51  37  56 S6        30.25S
CARO           CLEAR     43  41  93 CALM      30.24F
DETROIT CITY   CLEAR     57  40  52 CALM      30.27F
6HR MIN TEMP:  57; 6HR MAX TEMP:  71;

DETROIT        CLEAR     58  47  66 CALM      30.27F
6HR MIN TEMP:  57; 6HR MAX TEMP:  69;

FLINT          CLEAR     51  42  71 S3        30.25F
6HR MIN TEMP:  50; 6HR MAX TEMP:  74;

GROSSE ILE     CLEAR     54  46  76 CALM      30.25F
HILLSDALE      CLEAR     60  44  55 SE5       30.26S
6HR MIN TEMP:  58; 6HR MAX TEMP:  75;

HOWELL         CLEAR     56  40  56 SE5       30.26S
6HR MIN TEMP:  55; 6HR MAX TEMP:  72;


CITY           SKY/WX    TMP DP  RH WIND       PRES   REMARKS
JACKSON        CLEAR     56  45  66 SE3       30.26F
6HR MIN TEMP:  56; 6HR MAX TEMP:  74;

LAMBERTVILLE   CLEAR     54  45  71 CALM      30.26F
LANSING        CLOUDY    56  44  64 CALM      30.25F
6HR MIN TEMP:  55; 6HR MAX TEMP:  73;

LAPEER         FAIR      46  42  88 CALM      30.25F
MASON          CLEAR     54  43  66 S6        30.25F
MONROE         CLEAR     52  48  87 CALM      30.25F
MT. CLEMENS    CLEAR     49  43  78 CALM      30.24F
6HR MIN TEMP:  48; 6HR MAX TEMP:  64;

PONTIAC        CLEAR     54  40  59 CALM      30.26F
6HR MIN TEMP:  54; 6HR MAX TEMP:  73;

PORT HOPE        N/A     60  35  39 SW7       30.21F
6HR MIN TEMP:  59; 6HR MAX TEMP:  73;

PORT HURON     CLEAR     45  41  87 CALM      30.27S
TRI CITIES     CLEAR     60  40  47 S7        30.24F
6HR MIN TEMP:  57; 6HR MAX TEMP:  74;

MIDLAND        FAIR      48  41  78 CALM      30.22F
TROY           CLEAR     58  40  50 CALM      30.28F
SAGINAW HB     CLEAR     54  36  50 S6        30.24S
$$
MIZ043>046-050>051-056>058-064>065-071>073-077>080-240700-
SOUTHWEST LOWER MICHIGAN

CITY           SKY/WX    TMP DP  RH WIND       PRES   REMARKS
BATTLE CREEK   CLEAR     58  49  72 SE3       30.24F
6HR MIN TEMP:  58; 6HR MAX TEMP:  75;

BENTON HARBOR  PTCLDY    54  47  77 CALM      30.21F
6HR MIN TEMP:  53; 6HR MAX TEMP:  74;

BIG RAPIDS     FAIR      49  42  77 CALM      30.22S
6HR MIN TEMP:  48; 6HR MAX TEMP:  71;

COLDWATER      PTCLDY    59  47  65 CALM      30.25S
6HR MIN TEMP:  54; 6HR MAX TEMP:  73;

FREMONT        FAIR      52  44  75 CALM      30.22S
HOLLAND        MOCLDY    62  46  55 CALM      30.22F
6HR MIN TEMP:  58; 6HR MAX TEMP:  74;

GRAND RAPIDS   MOCLDY    57  46  66 CALM      30.23F
6HR MIN TEMP:  55; 6HR MAX TEMP:  75;

IONIA          CLOUDY    57  46  68 S5        30.23F
KALAMAZOO      CLEAR     58  46  64 S3        30.23F
6HR MIN TEMP:  57; 6HR MAX TEMP:  75;

LUDINGTON      PTCLDY    51  44  77 CALM      30.21S
6HR MIN TEMP:  51; 6HR MAX TEMP:  71;

MARSHALL       PTCLDY    57  46  65 CALM      30.24S
MOUNT PLEASANT CLEAR     50  44  80 CALM      30.22F
6HR MIN TEMP:  49; 6HR MAX TEMP:  73;

MUSKEGON       CLOUDY    57  45  64 CALM      30.21F
6HR MIN TEMP:  55; 6HR MAX TEMP:  72;

SOUTH HAVEN    PTCLDY    56  46  70 CALM      30.21F
$$
MIZ016>042-240700-
NORTHERN LOWER MICHIGAN

CITY           SKY/WX    TMP DP  RH WIND       PRES   REMARKS
ALPENA         CLEAR     55  37  50 SW6       30.19F
6HR MIN TEMP:  47; 6HR MAX TEMP:  73;

BEAVER ISLAND  CLEAR     56  34  43 SW17      30.18S
6HR MIN TEMP:  55; 6HR MAX TEMP:  61;

BELLAIRE       CLEAR     43  41  93 CALM      30.20S
6HR MIN TEMP:  43; 6HR MAX TEMP:  71;

CADILLAC       CLEAR     46  39  77 CALM      30.22F
CHARLEVOIX     CLEAR     61  38  41 SW7       30.21S
6HR MIN TEMP:  61; 6HR MAX TEMP:  69;

FRANKFORT      PTCLDY    56  38  50 CALM      30.19F
GAYLORD        CLEAR     53  37  54 CALM      30.21S
6HR MIN TEMP:  52; 6HR MAX TEMP:  70;

HARBOR SPRINGS CLEAR     49  40  72 CALM      30.19S
HOUGHTON LAKE  CLEAR     44  42  93 CALM      30.23S
6HR MIN TEMP:  44; 6HR MAX TEMP:  69;

MANISTEE       CLEAR     46  39  76 E3        30.21S
OSCODA         CLEAR     48  39  72 SW5       30.20F
PELLSTON       CLEAR     63  36  36 VRB3      30.18R
6HR MIN TEMP:  53; 6HR MAX TEMP:  69; 6HR PCP: TRACE;

ROGERS CITY    CLEAR     45  39  79 CALM      30.20S
TRAVERSE CITY  CLEAR     57  40  52 S3        30.19S
6HR MIN TEMP:  56; 6HR MAX TEMP:  73;

$$
MIZ007>008-015-240700-
EASTERN UPPER MICHIGAN

CITY           SKY/WX    TMP DP  RH WIND       PRES   REMARKS
KINROSS        CLEAR     52  36  54 SW5       30.16S
6HR MIN TEMP:  52; 6HR MAX TEMP:  64;

MACKINAC ISLAN CLEAR     52  37  56 SW9       30.17S
6HR MIN TEMP:  52; 6HR MAX TEMP:  60;

NEWBERRY       CLEAR     50  37  62 SW9       30.14S
S. S. MARIE    CLEAR     51  35  54 CALM      30.14F
6HR MIN TEMP:  51; 6HR MAX TEMP:  67;

$$
MIZ004>006-011>014-085-240700-
CENTRAL UPPER MICHIGAN

CITY           SKY/WX    TMP DP  RH WIND       PRES   REMARKS
MANISTIQUE     PTCLDY    50  41  70 CALM      30.15S
6HR MIN TEMP:  42; 6HR MAX TEMP:  53;

ESCANABA       CLOUDY    57  41  54 W5        30.16S
6HR MIN TEMP:  57; 6HR MAX TEMP:  64;

MENOMINEE      CLOUDY    63  43  48 W5        30.17S
6HR MIN TEMP:  63; 6HR MAX TEMP:  73;

SAWYER-GWINN   PTCLDY    51  37  58 NW3       30.16F
$$
MIZ001>003-009>011-084-240700-
WESTERN UPPER MICHIGAN

CITY           SKY/WX    TMP DP  RH WIND       PRES   REMARKS
IRON MOUNTAIN  CLOUDY    60  43  53 NW6       30.17S
6HR MIN TEMP:  57; 6HR MAX TEMP:  76;

HOUGHTON       CLEAR     63  39  41 W16       30.12F
6HR MIN TEMP:  58; 6HR MAX TEMP:  73;

COPPER HARBOR    N/A     57  36  45 CALM      30.10F
6HR MIN TEMP:  49; 6HR MAX TEMP:  76;

IRONWOOD       PTCLDY    48  43  81 CALM      30.15S
6HR MIN TEMP:  48; 6HR MAX TEMP:  73;

$$

ABBREVIATIONS USED IN REMARKS
   TC - TEMPERATURE IN CELSIUS
  WCI - WIND CHILL INDEX
   HX - HEAT INDEX
  VSB - VISIBILITY




USA.gov is the U.S. government's official web portal to all federal, state and local government web resources and services.